Lakeville, MN

6:39 PM CDT on May 23, 2018 (GMT -0500)
Airlake

Weather History for KLVN - January, 2014

Change the Weather History Date:

Thursday, January 9, 2014

  Actual Average Record
Temperature  
Mean Temperature 0 °F -  
Max Temperature 19 °F 18 °F 48 °F (2002)
Min Temperature -18 °F 0 °F -35 °F (1977)
Degree Days  
Heating Degree Days 64    
Moisture  
Dew Point 1 °F    
Average Humidity 80    
Maximum Humidity 100    
Minimum Humidity 57    
Precipitation  
Precipitation 0.00 in - - ()
Sea Level Pressure  
Sea Level Pressure 30.15 in    
Wind  
Wind Speed 5 mph (SSE)    
Max Wind Speed 13 mph    
Max Gust Speed 17 mph    
Visibility 9 miles    
Events Snow    
Averages and records for this station are not official NWS values.
T = Trace of Precipitation, MM = Missing Value Source: NWS Daily Summary

Daily Weather History Graph

Daily Weather History Graph

Search for Another Location

Airport or City:

Astronomy

Jan. 09, 2014 Rise Set
Actual Time 7:48 AM CST 4:51 PM CST
Civil Twilight 7:15 AM CST 5:24 PM CST
Nautical Twilight 6:39 AM CST 6:01 PM CST
Astronomical Twilight 6:04 AM CST 6:36 PM CST
Moon 12:24 PM CST (1/9) 1:51 AM CST (1/9)
Length of Visible Light 10h 08m
Length of Day
9h 02m
Waxing Gibbous, 66% of the Moon is Illuminated
Jan 9
Waxing Gibbous
Jan 15
Full
Jan 23
Last Quarter
Jan 30
New
Feb 6
First Quarter

Hourly Weather History & Observations

Time (CST) Temp. Windchill Dew Point Humidity Pressure Visibility Wind Dir Wind Speed Gust Speed Precip Events Conditions
12:04 AM -18.4 °F - -22.0 °F 84% 30.41 in 10.0 mi Calm Calm - N/A   Clear
12:25 AM -18.4 °F - -22.0 °F 84% 30.41 in 10.0 mi Calm Calm - N/A   Clear
12:44 AM -16.6 °F - -20.2 °F 84% 30.41 in 10.0 mi Calm Calm - N/A   Clear
1:04 AM -16.6 °F - -20.2 °F 84% 30.40 in 10.0 mi Calm Calm - N/A   Clear
1:25 AM -16.6 °F - -20.2 °F 84% 30.39 in 10.0 mi Calm Calm - N/A   Mostly Cloudy
1:44 AM -14.8 °F - -18.4 °F 84% 30.39 in 10.0 mi Calm Calm - N/A   Unknown
2:04 AM -13.0 °F -22.7 °F -16.6 °F 84% 30.37 in 10.0 mi East 3.5 mph - N/A   Overcast
2:25 AM -7.6 °F -16.5 °F -9.4 °F 92% 30.36 in 10.0 mi SSE 3.5 mph - N/A   Overcast
2:44 AM -5.8 °F -16.7 °F -9.4 °F 84% 30.36 in 10.0 mi SSE 4.6 mph - N/A   Overcast
3:04 AM -5.8 °F -18.4 °F -9.4 °F 84% 30.34 in 10.0 mi SE 5.8 mph - N/A   Overcast
3:25 AM -5.8 °F - -9.4 °F 84% 30.33 in 10.0 mi Calm Calm - N/A   Overcast
3:44 AM -5.8 °F -14.5 °F -9.4 °F 84% 30.32 in 10.0 mi South 3.5 mph - N/A   Overcast
4:05 AM -4.0 °F - -7.6 °F 85% 30.33 in 10.0 mi Calm Calm - N/A   Overcast
4:24 AM -2.2 °F - -7.6 °F 78% 30.32 in 10.0 mi Calm Calm - N/A   Overcast
4:44 AM -2.2 °F - -7.6 °F 78% 30.31 in 10.0 mi Calm Calm - N/A   Unknown
5:05 AM -0.4 °F -10.4 °F -5.8 °F 78% 30.31 in 10.0 mi SSE 4.6 mph - N/A   Overcast
5:24 AM -0.4 °F -10.4 °F -5.8 °F 78% 30.29 in 10.0 mi SE 4.6 mph - N/A   Overcast
5:44 AM 1.4 °F -12.5 °F -4.0 °F 78% 30.28 in 10.0 mi South 8.1 mph - N/A   Overcast
6:04 AM 3.2 °F -9.1 °F -4.0 °F 72% 30.28 in 10.0 mi South 6.9 mph - N/A   Overcast
6:24 AM 3.2 °F -7.8 °F -4.0 °F 72% 30.27 in 10.0 mi South 5.8 mph - N/A   Overcast
6:45 AM 3.2 °F -9.1 °F -4.0 °F 72% 30.25 in 10.0 mi SSE 6.9 mph - N/A   Overcast
7:04 AM 3.2 °F -11.3 °F -4.0 °F 72% 30.25 in 10.0 mi South 9.2 mph - N/A   Overcast
7:24 AM 3.2 °F -10.3 °F -5.8 °F 66% 30.24 in 10.0 mi SSE 8.1 mph - N/A   Overcast
7:44 AM 3.2 °F -7.8 °F -4.0 °F 72% 30.24 in 10.0 mi SSE 5.8 mph - N/A   Overcast
8:04 AM 3.2 °F -9.1 °F -4.0 °F 72% 30.23 in 10.0 mi SSE 6.9 mph - N/A   Overcast
8:25 AM 3.2 °F -10.3 °F -5.8 °F 66% 30.23 in 10.0 mi SSE 8.1 mph - N/A   Overcast
8:44 AM 3.2 °F -9.1 °F -4.0 °F 72% 30.23 in 10.0 mi SSE 6.9 mph - N/A   Overcast
9:04 AM 5.0 °F -5.6 °F -2.2 °F 72% 30.24 in 10.0 mi South 5.8 mph - N/A   Overcast
9:25 AM 6.8 °F -4.8 °F -2.2 °F 67% 30.23 in 10.0 mi SSE 6.9 mph - N/A   Mostly Cloudy
9:44 AM 6.8 °F -5.9 °F -2.2 °F 67% 30.21 in 10.0 mi SSE 8.1 mph - N/A   Scattered Clouds
10:04 AM 8.6 °F -3.7 °F -2.2 °F 62% 30.21 in 10.0 mi SSE 8.1 mph - N/A   Clear
10:25 AM 8.6 °F -4.7 °F -0.4 °F 67% 30.20 in 10.0 mi SSE 9.2 mph - N/A   Clear
10:44 AM 10.4 °F -0.4 °F -0.4 °F 62% 30.19 in 10.0 mi SSE 6.9 mph - N/A   Clear
11:05 AM 12.2 °F 2.9 °F 1.4 °F 62% 30.17 in 10.0 mi SSE 5.8 mph - N/A Snow Light Snow
11:24 AM 14.0 °F 2.0 °F 1.4 °F 57% 30.15 in 10.0 mi South 9.2 mph 16.1 mph N/A   Clear
11:44 AM 15.8 °F 5.1 °F 3.2 °F 58% 30.14 in 10.0 mi SSE 8.1 mph - N/A   Clear
12:05 PM 15.8 °F 5.1 °F 6.8 °F 68% 30.14 in 10.0 mi SSE 8.1 mph - N/A   Mostly Cloudy
12:24 PM 15.8 °F 4.2 °F 6.8 °F 68% 30.13 in 10.0 mi SSE 9.2 mph - N/A   Overcast
12:44 PM 15.8 °F 2.1 °F 8.6 °F 73% 30.11 in 10.0 mi South 12.7 mph - N/A   Overcast
1:05 PM 15.8 °F 3.4 °F 10.4 °F 79% 30.10 in 10.0 mi South 10.4 mph - N/A   Overcast
1:24 PM 15.8 °F 2.1 °F 10.4 °F 79% 30.09 in 10.0 mi SSE 12.7 mph 17.3 mph N/A   Overcast
1:45 PM 17.6 °F 5.7 °F 10.4 °F 73% 30.08 in 10.0 mi SSE 10.4 mph - N/A   Overcast
2:24 PM 17.6 °F 6.4 °F 10.4 °F 73% 30.06 in 10.0 mi SSE 9.2 mph - N/A   Scattered Clouds
2:45 PM 19.4 °F 8.6 °F 10.4 °F 68% 30.06 in 10.0 mi SSE 9.2 mph - N/A   Clear
3:04 PM 19.4 °F 7.9 °F 10.4 °F 68% 30.04 in 10.0 mi SSE 10.4 mph - N/A   Clear
3:24 PM 19.4 °F 8.6 °F 10.4 °F 68% 30.04 in 10.0 mi SE 9.2 mph - N/A   Clear
3:45 PM 17.6 °F 6.4 °F 10.4 °F 73% 30.04 in 10.0 mi SE 9.2 mph - N/A   Clear
4:04 PM 15.8 °F 4.2 °F 10.4 °F 79% 30.03 in 10.0 mi SSE 9.2 mph - N/A   Clear
5:04 PM 14.0 °F 2.0 °F 8.6 °F 79% 30.01 in 10.0 mi SE 9.2 mph - N/A   Clear
5:25 PM 14.0 °F 1.2 °F 10.4 °F 86% 30.00 in 10.0 mi SSE 10.4 mph - N/A   Clear
5:44 PM 12.2 °F -1.0 °F 10.4 °F 92% 29.99 in 10.0 mi SSE 10.4 mph - N/A   Clear
6:04 PM 12.2 °F -0.2 °F 10.4 °F 92% 29.99 in 10.0 mi SSE 9.2 mph - N/A   Clear
6:25 PM 12.2 °F 0.7 °F 10.4 °F 92% 29.98 in 10.0 mi SSE 8.1 mph - N/A   Clear
6:44 PM 12.2 °F -1.8 °F 10.4 °F 92% 29.98 in 7.0 mi SSE 11.5 mph 16.1 mph N/A   Clear
7:04 PM 12.2 °F 0.7 °F 10.4 °F 92% 29.98 in 7.0 mi SSE 8.1 mph - N/A   Clear
7:25 PM 12.2 °F 4.3 °F 10.4 °F 92% 29.98 in 7.0 mi SSE 4.6 mph - N/A   Clear
7:44 PM 12.2 °F 1.7 °F 12.2 °F 100% 29.97 in 5.0 mi SSE 6.9 mph - N/A   Mostly Cloudy
8:04 PM 14.0 °F 2.0 °F 12.2 °F 93% 29.97 in 5.0 mi SSE 9.2 mph - N/A   Mostly Cloudy
8:25 PM 14.0 °F 2.0 °F 12.2 °F 93% 29.96 in 5.0 mi SSE 9.2 mph - N/A   Scattered Clouds
8:44 PM 14.0 °F 2.0 °F 12.2 °F 93% 29.96 in 5.0 mi South 9.2 mph 16.1 mph N/A   Clear
9:04 PM 14.0 °F 1.2 °F 12.2 °F 93% 29.95 in 5.0 mi SSE 10.4 mph - N/A   Clear
9:25 PM 12.2 °F -0.2 °F 12.2 °F 100% 29.94 in 5.0 mi SSE 9.2 mph - N/A   Clear
9:44 PM 12.2 °F -0.2 °F 12.2 °F 100% 29.94 in 5.0 mi SSE 9.2 mph - N/A   Clear
10:04 PM 14.0 °F 2.0 °F 12.2 °F 93% 29.93 in 5.0 mi SSE 9.2 mph - N/A   Scattered Clouds
10:24 PM 14.0 °F 2.9 °F 12.2 °F 93% 29.93 in 5.0 mi South 8.1 mph - N/A   Scattered Clouds
10:44 PM 15.8 °F 5.1 °F 12.2 °F 86% 29.93 in 5.0 mi SSE 8.1 mph - N/A   Mostly Cloudy
11:04 PM 15.8 °F 6.1 °F 12.2 °F 86% 29.92 in 5.0 mi SSE 6.9 mph - N/A   Scattered Clouds
11:21 PM 14.0 °F 5.1 °F 12.2 °F 93% 29.91 in 5.0 mi SSE 5.8 mph - N/A   Clear